Regional Weather Roundup
Issued by NWS Green Bay, WI

Home | Current Version | Previous Version | Graphics & Text | Print | Product List | Glossary Off
Versions: 1 2 3 4 5 6 7 8 9 10 11 12 13 14 15 16 17 18 19 20 21 22 23 24 25 26 27 28 29 30 31 32 33 34 35 36 37 38 39 40 41 42 43 44 45 46 47 48 49 50

551
ASUS43 KGRB 151411
RWRGRB

NORTH-CENTRAL AND NORTHEAST WISCONSIN REGIONAL WEATHER ROUNDUP
NATIONAL WEATHER SERVICE GREEN BAY WI
800 AM CST FRI DEC 15 2017

WIZ005-009-010>012-018-019-151500-
NORTH CENTRAL WISCONSIN

CITY           SKY/WX    TMP DP  RH WIND       PRES   REMARKS
IRONWOOD       LGT SNOW  12   9  87 W13       29.79S FOG     WCI  -3
MANITOWISH WTR LGT SNOW  11   9  92 W5        29.75F WCI   3
ARBOR VITAE    LGT SNOW  14  10  84 W7        29.76S WCI   4
EAGLE RIVER    LGT SNOW  12   7  81 W8        29.74S WCI   0
LAND O LAKES   LGT SNOW  12   9  85 W5        29.75S WCI   4
RHINELANDER    LGT SNOW  12   7  80 W5        29.77S WCI   4
PHILLIPS       LGT SNOW  11   9  89 CALM      29.79F
ANTIGO         LGT SNOW  11   6  81 NW16G23   29.78S WCI  -5
TOMAHAWK       LGT SNOW  10   6  82 CALM      29.79F
MERRILL        CLOUDY    13   8  78 NW6       29.82R WCI   4
$$

WIZ013-073-151500-
NORTHEAST WISCONSIN

CITY           SKY/WX    TMP DP  RH WIND       PRES   REMARKS
IRON MOUNTAIN  CLOUDY   N/A N/A N/A MISG      29.74R
MARINETTE      CLOUDY    15  10  80 W8        29.80S WCI   4
OCONTO         CLEAR     13   7  77 W8        29.82R WCI   1
$$

WIZ017-030-035>037-045-151500-
CENTRAL WISCONSIN

CITY           SKY/WX    TMP DP  RH WIND       PRES   REMARKS
MEDFORD        FLURRIES  12   8  83 NW5       29.80S WCI   4
WAUSAU         CLOUDY    15  11  83 NW9       29.80S WCI   3
MOSINEE        CLOUDY    16  12  86 NW10G17   29.82S WCI   3
MARSHFIELD     CLOUDY    17  11  77 NW15      29.82R WCI   2
WISC RAPIDS    CLOUDY    19  11  70 W7        29.86S WCI  10
STEVENS POINT  CLOUDY    17  11  78 W7        29.83S WCI   7
WAUPACA        CLOUDY    23  15  73 W9        29.84S
SHAWANO        CLOUDY    20  12  71 NW6       29.82S
CLINTONVILLE   NOT AVBL
WAUTOMA        CLOUDY    20  14  77 W9        29.86R WCI   9
$$

WIZ038-039-048-051-151500-
FOX VALLEY

CITY           SKY/WX    TMP DP  RH WIND       PRES   REMARKS
NWS GREEN BAY  CLOUDY    20  10  65 NW12      29.83S WCI   8
APPLETON       CLOUDY    19  12  73 W10       29.81S WCI   8
OSHKOSH        CLOUDY    21  15  78 W8G16     29.83S
FOND DU LAC    CLOUDY    22  13  68 W14       29.84S WCI   9
$$

WIZ022-050-052-151500-
EAST CENTRAL WISCONSIN

CITY           SKY/WX    TMP DP  RH WIND       PRES   REMARKS
EPHRAIM        PTSUNNY   17  11  77 NW10G17   29.75F WCI   5
WASHINGTON ISL CLOUDY    19  13  80 NW10      29.75S WCI   7
STURGEON BAY   CLOUDY    18  12  77 W17       29.79S WCI   3
MANITOWOC      FLURRIES  20  15  81 W12       29.83S WCI   8
SHEBOYGAN      CLOUDY    21  16  81 W10       29.83S WCI  10
$$

LMZ563-521-522-541>543-151500-
LAKESHORE

STATION/POSITION TIME  TEMP    WIND        PRES    VSBY  WAVE
                       AIR SEA DIR/SP/G                  HT/PER
                 (UTC) (F)     (DEG/KT/KT) (MB)    (MI)  (FT/S)
SHEBOYGAN LKSHOR 1400   22     290/ 13/ 15 1011.3F
KEWAUNEE LKSHORE 1348   19     290/  7/ 14 1008.8R
NORTHPORT PIER   1403   20     290/  8/ 17 1007.8
MENOMINEE LKSHOR 1348   16     260/  8/ 13 1008.7F
$$




USA.gov is the U.S. government's official web portal to all federal, state and local government web resources and services.